World > North America > United States > North Carolina

Richlands, North Carolina Regional Weather

Lat: 34.90N, Lon: 77.55W
Wx Zone: NCZ098
Feedback

Richlands, NC Regional Weather

Expires:201910160600;;778409
ASUS42 KMHX 160514
RWRMHX
WEATHER ROUNDUP FOR EASTERN NORTH CAROLINA
NATIONAL WEATHER SERVICE NEWPORT/MOREHEAD CITY NC
100 AM EDT WED OCT 16 2019

NOTE: "FAIR" INDICATES FEW OR NO CLOUDS BELOW 12,000 FEET
WITH NO SIGNIFICANT WEATHER AND/OR OBSTRUCTIONS TO VISIBILITY


NCZ011>013-027>030-043-044-078>080-089-090>093-098-160600-
COASTAL PLAIN
  
CITY           SKY/WX    TMP DP  RH WIND       PRES   REMARKS
AHOSKIE        NOT AVBL                                               
CLINTON        FAIR      63  58  84 CALM      29.98F                  
ELIZABETHTOWN  CLOUDY    62  58  84 E3        30.00S                  
GOLDSBORO      CLOUDY    60  56  86 E3        29.97F                  
GREENVILLE     FAIR      59  55  88 CALM      30.02F                  
HAVELOCK       CLEAR     66  61  84 CALM      30.00F                  
KENANSVILLE    FAIR      59 N/A N/A CALM      29.99F                  
KINSTON        FAIR      58  55  88 CALM      30.00F                  
NEW BERN       FAIR      62  61  96 CALM      30.01F                  
RICHLANDS      MOCLDY    63  60  90 E3        30.00F                  
ROCKY MOUNT    MOCLDY    58  54  86 CALM      30.00F                  
WASHINGTON     FAIR      58  56  94 CALM      30.01F                  
WHITEVILLE     NOT AVBL                                               

$$


SKY/WX - Weather  TMP - Temperature  DP - Dew Point  RH - Relative Humidity
WIND - Wind Direction/Speed PRES - Barometric Pressure VSB - Visibility
WCI - Wind Chill Index E13G22 Wind - East Wind 13 mph/Gusts of 22 mph